Location: Sinnemahoning State Park
(41.4031°N, 78.0230°W)
Time: 02:27:42
(UTC-04:00)

Daily predictions for brighter satellites

Satellite Brightness Start Highest point End
(mag) Time Altitude Azimuth Time Altitude Azimuth Time Altitude Azimuth
SL-16 R/B 4.3 02:47:41 25° NNE 02:47:41 25° NNE 02:50:18 10° N
Cosmos 2227 Rocket 4.2 03:21:21 23° N 03:21:21 23° N 03:23:27 10° NNE
Resurs 1-4 Rocket 3.8 03:36:52 10° NNE 03:39:15 28° N 03:39:15 28° N
CZ-4C R/B 3.5 03:57:55 33° N 03:57:55 33° N 04:01:55 10° NNE
Cosmos 2279 Rocket 4.3 03:56:36 59° E 03:56:36 59° E 04:02:41 10° NNE
Cosmos 2297 Rocket 3.8 04:03:37 24° NNW 04:03:37 24° NNW 04:06:24 10° N
Meteor 1-27 Rocket 4.4 04:11:03 45° N 04:11:03 45° N 04:14:50 10° N
CZ-2D R/B 3.6 04:05:42 10° N 04:08:08 26° NNW 04:08:08 26° NNW
ASTEX 1 4.4 04:18:58 10° NNE 04:23:40 43° E 04:25:17 33° SE
SL-16 R/B 4.5 04:32:47 14° NW 04:32:47 14° NW 04:33:38 10° NW
Lacrosse 5 rocket 4.0 04:32:56 11° N 04:32:56 11° N 04:33:29 10° N
Meteor 1-5 Rocket 4.2 04:28:31 10° NNW 04:34:29 81° W 04:35:12 69° SSW
Cosmos 1140 Rocket 3.4 04:36:44 77° SSE 04:37:01 80° ESE 04:42:16 10° NNE
Cosmos 1603 3.5 04:32:31 10° NNW 04:38:11 81° WSW 04:43:50 10° SSE
Cosmos 2180 Rocket 4.3 04:37:47 62° SSW 04:38:54 80° W 04:45:08 10° N
CZ-4B R/B 4.1 04:40:47 10° NNE 04:44:41 39° E 04:46:00 29° SE
Atlas Centaur 2 3.7 04:46:12 21° S 04:46:12 21° S 04:49:56 10° ESE
Cosmos 1378 Rocket 3.6 04:52:25 64° NNW 04:52:25 64° NNW 04:56:18 10° N
MOS 1-B 4.3 04:47:49 10° NNE 04:53:39 82° ESE 04:56:46 29° S
Cosmos 1954 Rocket 4.0 04:55:01 60° W 04:55:23 62° WNW 05:00:40 10° NNE
Cosmos 2227 4.4 04:56:39 49° WNW 04:57:02 50° WNW 05:02:31 10° NNE
ARIANE 5 R/B 4.2 04:53:19 10° NNW 04:55:39 19° NW 04:55:39 19° NW
Cosmos 676 Rocket 4.3 04:58:27 48° WNW 04:58:30 48° WNW 05:03:40 10° N
Okean O Rocket 2.4 04:56:25 10° NNE 05:00:38 48° E 05:04:04 15° S
Cosmos 1655 Rocket 4.3 04:56:44 10° NNW 05:02:38 43° W 05:02:59 42° W
Cosmos 1943 3.2 04:57:30 10° NNW 05:03:14 85° ENE 05:08:55 10° SSE
Cosmos 2227 Rocket 4.4 05:03:11 10° NW 05:03:15 10° NW 05:03:34 10° NW
Cosmos 614 Rocket 3.9 05:06:04 52° WSW 05:07:02 63° WNW 05:12:08 10° NNE
Cosmos 1570 Rocket 4.4 05:01:49 10° NNW 05:07:06 67° ENE 05:12:23 10° SSE
Cosmos 2266 Rocket 4.0 05:02:06 10° N 05:08:32 84° W 05:14:56 10° S
ADEOS II 2.0 05:03:42 10° N 05:08:58 75° WNW 05:11:27 32° SSW
SL-8 R/B 3.8 05:09:30 46° SSW 05:10:47 68° SSE 05:15:33 10° ENE
Cosmos 2208 Rocket 4.4 05:06:29 10° NNW 05:11:47 66° ENE 05:16:58 10° SSE
Cosmos 2263 Rocket 2.1 05:11:24 27° SSW 05:14:40 89° E 05:20:25 10° NNE
Okean 1 Rocket 4.3 05:12:42 10° NNW 05:15:05 26° NW 05:15:05 26° NW
Cosmos 220 Rocket 3.9 05:17:32 34° SSW 05:19:20 89° WNW 05:23:41 10° NNE
SL-24 DEB 4.5 05:16:06 10° N 05:20:44 49° W 05:22:17 35° SW
Resurs 1-4 Rocket 4.2 05:19:20 10° NW 05:20:20 11° NW 05:20:20 11° NW
DELTA 2 R/B (1) 3.5 05:19:29 37° WSW 05:21:45 75° S 05:27:19 10° E
Cosmos 1437 Rocket 2.6 05:17:57 10° NNW 05:21:54 81° W 05:25:52 10° S
Cosmos 2084 3.8 05:26:06 36° SSW 05:26:06 36° SSW 05:29:05 10° S
TELKOM 3 3.1 05:35:16 61° SSE 05:35:23 62° SE 05:37:31 10° ENE
BREEZE-M R/B 3.8 05:35:48 29° SW 05:37:17 69° SE 05:45:58 10° ENE
Meteor PRIRODA 3.9 05:34:29 10° NNE 05:38:10 71° ESE 05:41:50 10° S
Cosmos 1812 4.1 05:40:57 21° WNW 05:40:57 21° WNW 05:43:31 10° NNW
GPS 2-05 Rocket1 4.2 05:41:11 20° SSW 05:41:16 20° SSW 05:43:39 10° SE
Cosmos 1607 4.0 05:38:46 20° SW 05:43:07 61° NW 05:49:27 10° NNE
ATLAS 3B R/B 3.4 05:36:00 10° SSW 05:43:18 60° ESE 05:50:19 10° NE
Tiangong 1 0.5 05:43:14 45° WNW 05:43:54 85° N 05:46:35 10° E
CZ-4C R/B 4.4 05:44:03 10° NW 05:46:41 13° NNW 05:49:27 10° N
CZ-4B R/B 3.0 05:41:36 10° N 05:46:54 74° WNW 05:52:11 10° SSW
CZ-3 R/B 3.6 05:35:17 14° SW 05:49:10 33° S 05:55:06 10° ESE
Cosmos 332 Rocket 3.7 05:47:00 10° NNW 05:51:49 75° WSW 05:56:35 10° SSE
PSLV R/B 4.1 05:48:33 10° N 05:52:22 34° WNW 05:55:04 17° SW
ISS -1.4 05:54:23 10° SSW 05:54:23 10° SSW 05:54:28 10° SSW
Cosmos 1544 Rocket 3.5 05:51:14 10° NNW 05:55:30 56° W 05:59:45 10° S
Cosmos 1975 Rocket 4.0 05:54:22 18° WSW 05:56:37 28° WNW 06:00:26 10° NNW
Abrixas rocket 2.9 05:55:09 22° WNW 05:56:50 40° NNW 05:59:56 10° NE
Meteor 1-4 Rocket 2.4 05:53:29 10° N 05:56:59 88° E 06:00:27 10° S
Cosmos 371 Rocket 3.2 05:52:39 10° NNW 05:57:33 79° WSW 06:02:23 10° SSE
Cosmos 1500 4.4 05:56:14 10° NW 05:59:05 21° W 06:00:31 17° WSW
Okean-O 3.5 05:55:56 10° NNE 06:00:17 52° E 06:04:36 10° S
Cosmos 1975 3.6 05:59:22 10° NNW 06:03:01 31° W 06:06:39 10° SSW
Cosmos 1455 Rocket 3.1 05:59:18 10° NNW 06:03:31 51° W 06:07:41 10° S
ATLAS CENTAUR R/B 4.3 06:09:30 10° SE 06:11:21 13° ESE 06:13:09 10° E
Meteor 2-9 Rocket 4.2 06:06:25 10° N 06:11:50 84° E 06:17:22 10° S
USA 215 3.6 06:05:23 10° ESE 06:11:52 70° NE 06:18:22 10° NW
IDEFIX/ARIANE 42P 4.4 06:08:46 10° NNE 06:13:37 36° E 06:18:27 10° SSE
COSMOS 2406 4.1 06:08:53 10° NNW 06:14:35 55° ENE 06:20:13 10° SE
Cosmos 1745 Rocket 4.2 06:11:05 10° N 06:17:29 82° E 06:23:49 10° S
CZ-2C R/B 4.0 06:13:16 10° S 06:17:47 48° W 06:22:24 10° NNW
Cosmos 1486 Rocket 4.4 06:14:17 10° S 06:19:30 71° ESE 06:24:43 10° NNE
SKYMED 2 3.9 06:15:22 10° SSE 06:19:41 71° ENE 06:24:01 10° N
Cosmos 468 Rocket 4.1 06:15:25 10° NNW 06:20:36 55° WSW 06:25:46 10° S
Cosmos 841 Rocket 4.0 06:16:07 10° NNW 06:21:17 65° ENE 06:26:27 10° SSE
CZ-2C R/B 4.4 06:17:25 10° NE 06:21:29 31° E 06:25:36 10° SSE
EO 1 Del DPAF 3.2 06:17:58 10° S 06:21:45 63° W 06:25:33 10° NNW
Cosmos 1536 Rocket 3.8 06:17:39 10° SSW 06:21:48 46° WNW 06:26:01 10° N
GEOS 3 Rocket 3.6 06:17:52 10° SSE 06:23:02 79° SW 06:28:21 10° NW
Cosmos 1553 Rocket 3.9 06:17:44 10° SSW 06:23:53 72° W 06:29:59 10° N
Meteor 1-31 Rocket 3.4 06:21:14 10° N 06:24:48 36° WNW 06:28:21 10° SW
NOSS 3-2 (A) 4.5 06:20:54 10° S 06:26:33 49° ESE 06:32:44 10° NE
Cosmos 2278 Rocket 4.5 06:23:16 10° SSE 06:28:01 29° ESE 06:32:49 10° NE
Atlas Centaur 2 3.4 06:30:10 10° SW 06:34:20 22° S 06:37:51 10° SE
Meteor 1-23 Rocket 4.2 06:29:08 10° S 06:34:42 86° WNW 06:40:18 10° N
Okean 1-7 Rocket 4.1 06:31:19 10° S 06:35:47 70° E 06:40:19 10° NNE
